| time (UTC) | temp C | wind direction | speed KPH | gust KPH | rain 1hr cm | rain 24hr cm | rain mn cm | humidity % | barometer mb |
| 20260904201239 | 36 | 145 | 4.8 | 9.7 | 0.00 | 0.00 | 0.00 | 42 | 1012.3 |
| 20260904200238 | 35 | 133 | 4.8 | 12.9 | 0.00 | 0.00 | 0.00 | 44 | 1012.3 |
| 20260904195738 | 35 | 142 | 4.8 | 9.7 | 0.00 | 0.00 | 0.00 | 44 | 1012.5 |
| 20260904194238 | 35 | 150 | 4.8 | 11.3 | 0.00 | 0.00 | 0.00 | 47 | 1012.7 |
| 20260904193739 | 35 | 141 | 6.4 | 11.3 | 0.00 | 0.00 | 0.00 | 48 | 1012.6 |
| 20260904193239 | 35 | 143 | 6.4 | 11.3 | 0.00 | 0.00 | 0.00 | 47 | 1012.9 |
| 20260904192739 | 35 | 141 | 6.4 | 12.9 | 0.00 | 0.00 | 0.00 | 47 | 1012.9 |
| 20260904192238 | 35 | 138 | 6.4 | 12.9 | 0.00 | 0.00 | 0.00 | 47 | 1012.9 |
| 20260904191739 | 35 | 143 | 4.8 | 12.9 | 0.00 | 0.00 | 0.00 | 48 | 1013.0 |
| 20260904191238 | 35 | 150 | 4.8 | 12.9 | 0.00 | 0.00 | 0.00 | 49 | 1013.1 |
| 20260904190739 | 35 | 151 | 6.4 | 14.5 | 0.00 | 0.00 | 0.00 | 49 | 1013.2 |
| 20260904190239 | 35 | 143 | 6.4 | 14.5 | 0.00 | 0.00 | 0.00 | 48 | 1013.3 |
| 20260904185239 | 35 | 143 | 4.8 | 11.3 | 0.00 | 0.00 | 0.00 | 47 | 1013.4 |
| 20260904184739 | 35 | 150 | 4.8 | 11.3 | 0.00 | 0.00 | 0.00 | 47 | 1013.5 |
| 20260904184239 | 35 | 168 | 4.8 | 12.9 | 0.00 | 0.00 | 0.00 | 47 | 1013.5 |
| 20260904183738 | 35 | 172 | 4.8 | 12.9 | 0.00 | 0.00 | 0.00 | 46 | 1013.6 |
| 20260904183239 | 35 | 158 | 4.8 | 12.9 | 0.00 | 0.00 | 0.00 | 46 | 1013.6 |
| 20260904182739 | 35 | 158 | 4.8 | 14.5 | 0.00 | 0.00 | 0.00 | 47 | 1013.5 |
| 20260904182239 | 35 | 163 | 4.8 | 14.5 | 0.00 | 0.00 | 0.00 | 48 | 1013.6 |
| 20260904181738 | 35 | 166 | 4.8 | 12.9 | 0.00 | 0.00 | 0.00 | 47 | 1013.8 |
| 20260904181240 | 34 | 158 | 6.4 | 12.9 | 0.00 | 0.00 | 0.00 | 46 | 1013.8 |
| 20260904180740 | 34 | 153 | 6.4 | 16.1 | 0.00 | 0.00 | 0.00 | 43 | 1013.9 |
| 20260904180239 | 35 | 160 | 6.4 | 16.1 | 0.00 | 0.00 | 0.00 | 42 | 1013.9 |
| 20260904175738 | 35 | 160 | 4.8 | 12.9 | 0.00 | 0.00 | 0.00 | 43 | 1014.1 |
| 20260904175238 | 35 | 156 | 4.8 | 12.9 | 0.00 | 0.00 | 0.00 | 43 | 1014.1 |
| 20260904174739 | 35 | 167 | 3.2 | 11.3 | 0.00 | 0.00 | 0.00 | 44 | 1014.1 |
| 20260904174239 | 35 | 170 | 3.2 | 8.0 | 0.00 | 0.00 | 0.00 | 45 | 1014.1 |
| 20260904173739 | 34 | 173 | 4.8 | 9.7 | 0.00 | 0.00 | 0.00 | 44 | 1014.2 |
| 20260904173239 | 34 | 185 | 4.8 | 9.7 | 0.00 | 0.00 | 0.00 | 44 | 1014.2 |
| 20260904172739 | 33 | 169 | 4.8 | 12.9 | 0.00 | 0.00 | 0.00 | 48 | 1014.2 |
| 20260904172238 | 33 | 164 | 6.4 | 12.9 | 0.00 | 0.00 | 0.00 | 46 | 1014.3 |
| 20260904171740 | 33 | 161 | 6.4 | 14.5 | 0.00 | 0.00 | 0.00 | 49 | 1014.3 |
| 20260904171239 | 33 | 156 | 6.4 | 14.5 | 0.00 | 0.00 | 0.00 | 49 | 1014.3 |
| 20260904170739 | 33 | 158 | 6.4 | 14.5 | 0.00 | 0.00 | 0.00 | 49 | 1014.5 |
| 20260904170239 | 33 | 157 | 4.8 | 14.5 | 0.00 | 0.00 | 0.00 | 50 | 1014.5 |
| 20260904165740 | 33 | 169 | 3.2 | 12.9 | 0.00 | 0.00 | 0.00 | 49 | 1014.5 |
| 20260904165240 | 33 | 183 | 3.2 | 12.9 | 0.00 | 0.00 | 0.00 | 49 | 1014.5 |
| 20260904164740 | 33 | 191 | 3.2 | 11.3 | 0.00 | 0.00 | 0.00 | 47 | 1014.6 |
| 20260904164239 | 33 | 213 | 4.8 | 12.9 | 0.00 | 0.00 | 0.00 | 45 | 1014.6 |
| 20260904163739 | 33 | 222 | 4.8 | 16.1 | 0.00 | 0.00 | 0.00 | 51 | 1014.6 |
| 20260904163239 | 33 | 210 | 4.8 | 16.1 | 0.00 | 0.00 | 0.00 | 50 | 1014.6 |
| 20260904162739 | 33 | 206 | 3.2 | 11.3 | 0.00 | 0.00 | 0.00 | 52 | 1014.6 |
| 20260904161739 | 32 | 179 | 3.2 | 9.7 | 0.00 | 0.00 | 0.00 | 54 | 1014.6 |
| 20260904160740 | 32 | 190 | 4.8 | 9.7 | 0.00 | 0.00 | 0.00 | 58 | 1014.6 |
| 20260904155739 | 32 | 213 | 4.8 | 16.1 | 0.00 | 0.00 | 0.00 | 56 | 1014.6 |
| 20260904155239 | 32 | 204 | 4.8 | 16.1 | 0.00 | 0.00 | 0.00 | 58 | 1014.6 |
| 20260904154738 | 31 | 170 | 3.2 | 9.7 | 0.00 | 0.00 | 0.00 | 57 | 1014.6 |
| 20260904154239 | 31 | 172 | 4.8 | 8.0 | 0.00 | 0.00 | 0.00 | 58 | 1014.6 |
| 20260904153739 | 31 | 166 | 4.8 | 8.0 | 0.00 | 0.00 | 0.00 | 58 | 1014.6 |
| 20260904153240 | 31 | 167 | 4.8 | 8.0 | 0.00 | 0.00 | 0.00 | 59 | 1014.6 |
| 20260904152739 | 31 | 170 | 3.2 | 8.0 | 0.00 | 0.00 | 0.00 | 60 | 1014.5 |
| 20260904152239 | 31 | 179 | 3.2 | 9.7 | 0.00 | 0.00 | 0.00 | 61 | 1014.6 |
| 20260904151739 | 30 | 188 | 4.8 | 14.5 | 0.00 | 0.00 | 0.00 | 63 | 1014.6 |
| 20260904151238 | 30 | 184 | 3.2 | 14.5 | 0.00 | 0.00 | 0.00 | 63 | 1014.6 |
| 20260904150238 | 30 | 182 | 4.8 | 12.9 | 0.00 | 0.00 | 0.00 | 66 | 1014.6 |
| 20260904145238 | 30 | 194 | 3.2 | 11.3 | 0.00 | 0.00 | 0.00 | 70 | 1014.5 |
| 20260904144739 | 30 | 189 | 3.2 | 11.3 | 0.00 | 0.00 | 0.00 | 72 | 1014.5 |
| 20260904144239 | 29 | 189 | 3.2 | 12.9 | 0.00 | 0.00 | 0.00 | 74 | 1014.4 |
| 20260904143739 | 29 | 193 | 3.2 | 12.9 | 0.00 | 0.00 | 0.00 | 75 | 1014.4 |
| 20260904143240 | 28 | 183 | 3.2 | 8.0 | 0.00 | 0.00 | 0.00 | 77 | 1014.4 |
| 20260904142739 | 28 | 185 | 3.2 | 9.7 | 0.00 | 0.00 | 0.00 | 77 | 1014.4 |
| 20260904142239 | 28 | 177 | 3.2 | 9.7 | 0.00 | 0.00 | 0.00 | 77 | 1014.5 |
| 20260904141240 | 28 | 172 | 3.2 | 8.0 | 0.00 | 0.00 | 0.00 | 79 | 1014.5 |
| 20260904140739 | 28 | 170 | 3.2 | 11.3 | 0.00 | 0.00 | 0.00 | 81 | 1014.5 |
| 20260904140240 | 27 | 161 | 3.2 | 11.3 | 0.00 | 0.00 | 0.00 | 82 | 1014.5 |
| 20260904135739 | 27 | 155 | 3.2 | 11.3 | 0.00 | 0.00 | 0.00 | 83 | 1014.4 |
| 20260904135239 | 27 | 150 | 3.2 | 11.3 | 0.00 | 0.00 | 0.00 | 85 | 1014.5 |
| 20260904133739 | 27 | 151 | 3.2 | 8.0 | 0.00 | 0.00 | 0.00 | 87 | 1014.5 |
| 20260904133239 | 26 | 146 | 3.2 | 8.0 | 0.00 | 0.00 | 0.00 | 88 | 1014.4 |
| 20260904132740 | 26 | 149 | 1.6 | 6.4 | 0.00 | 0.00 | 0.00 | 89 | 1014.3 |
| 20260904131739 | 26 | 152 | 1.6 | 8.0 | 0.00 | 0.00 | 0.00 | 90 | 1014.2 |
| 20260904130739 | 26 | 165 | 1.6 | 3.2 | 0.00 | 0.00 | 0.00 | 91 | 1014.0 |
| 20260904130238 | 26 | 155 | 1.6 | 4.8 | 0.00 | 0.00 | 0.00 | 91 | 1014.0 |
| 20260904125738 | 26 | 149 | 1.6 | 4.8 | 0.00 | 0.00 | 0.00 | 91 | 1014.0 |
| 20260904125239 | 25 | 147 | 1.6 | 4.8 | 0.00 | 0.00 | 0.00 | 91 | 1013.9 |
| 20260904124739 | 25 | 152 | 1.6 | 4.8 | 0.00 | 0.00 | 0.00 | 91 | 1013.9 |
| 20260904124239 | 25 | 0 | 0.0 | 3.2 | 0.00 | 0.00 | 0.00 | 92 | 1013.8 |
| 20260904123739 | 25 | 0 | 0.0 | 1.6 | 0.00 | 0.00 | 0.00 | 92 | 1013.7 |
| 20260904123239 | 25 | 0 | 0.0 | 3.2 | 0.00 | 0.00 | 0.00 | 93 | 1013.7 |
| 20260904122738 | 25 | 0 | 0.0 | 3.2 | 0.00 | 0.00 | 0.00 | 93 | 1013.6 |
| 20260904122239 | 25 | 151 | 1.6 | 3.2 | 0.00 | 0.00 | 0.00 | 93 | 1013.6 |
| 20260904121739 | 25 | 157 | 1.6 | 3.2 | 0.00 | 0.00 | 0.00 | 93 | 1013.6 |
| 20260904115739 | 25 | 155 | 1.6 | 4.8 | 0.00 | 0.00 | 0.00 | 93 | 1013.3 |
| 20260904115239 | 25 | 154 | 1.6 | 3.2 | 0.00 | 0.00 | 0.00 | 92 | 1013.3 |
| 20260904114740 | 25 | 154 | 1.6 | 3.2 | 0.00 | 0.00 | 0.00 | 92 | 1013.3 |
| 20260904114240 | 25 | 154 | 1.6 | 3.2 | 0.00 | 0.00 | 0.00 | 92 | 1013.3 |
| 20260904113740 | 25 | 0 | 0.0 | 3.2 | 0.00 | 0.00 | 0.00 | 92 | 1013.2 |
| 20260904112739 | 25 | 149 | 1.6 | 4.8 | 0.00 | 0.00 | 0.00 | 92 | 1013.2 |
| 20260904112239 | 25 | 155 | 1.6 | 6.4 | 0.00 | 0.00 | 0.00 | 91 | 1013.1 |
| 20260904111739 | 25 | 162 | 1.6 | 6.4 | 0.00 | 0.00 | 0.00 | 91 | 1013.0 |
| 20260904111239 | 25 | 0 | 0.0 | 3.2 | 0.00 | 0.00 | 0.00 | 91 | 1013.0 |
| 20260904110239 | 25 | 162 | 1.6 | 3.2 | 0.00 | 0.00 | 0.00 | 91 | 1013.0 |
| 20260904105739 | 25 | 162 | 1.6 | 3.2 | 0.00 | 0.00 | 0.00 | 91 | 1013.1 |
| 20260904105239 | 25 | 163 | 1.6 | 3.2 | 0.00 | 0.00 | 0.00 | 91 | 1013.0 |
| 20260904104740 | 25 | 163 | 1.6 | 3.2 | 0.00 | 0.00 | 0.00 | 91 | 1012.8 |
| 20260904104240 | 25 | 0 | 0.0 | 3.2 | 0.00 | 0.00 | 0.00 | 91 | 1012.7 |
| 20260904103739 | 25 | 0 | 0.0 | 3.2 | 0.00 | 0.00 | 0.00 | 91 | 1012.7 |
| 20260904103239 | 25 | 0 | 0.0 | 3.2 | 0.00 | 0.00 | 0.00 | 91 | 1012.8 |
| 20260904102740 | 25 | 0 | 0.0 | 3.2 | 0.00 | 0.00 | 0.00 | 91 | 1012.8 |
| 20260904102239 | 25 | 0 | 0.0 | 3.2 | 0.00 | 0.00 | 0.00 | 91 | 1012.8 |
| 20260904101739 | 25 | 0 | 0.0 | 3.2 | 0.00 | 0.00 | 0.00 | 91 | 1012.9 |
| 20260904101239 | 25 | 147 | 1.6 | 3.2 | 0.00 | 0.00 | 0.00 | 91 | 1012.9 |
| 20260904100739 | 25 | 147 | 1.6 | 3.2 | 0.00 | 0.00 | 0.00 | 91 | 1012.8 |
| 20260904100239 | 25 | 147 | 1.6 | 3.2 | 0.00 | 0.00 | 0.00 | 91 | 1012.8 |
| 20260904095740 | 25 | 150 | 1.6 | 4.8 | 0.00 | 0.00 | 0.00 | 91 | 1012.8 |
| 20260904095239 | 25 | 152 | 1.6 | 4.8 | 0.00 | 0.00 | 0.00 | 91 | 1012.8 |
| 20260904094739 | 25 | 0 | 0.0 | 1.6 | 0.00 | 0.00 | 0.00 | 91 | 1012.8 |
| 20260904094239 | 25 | 0 | 0.0 | 1.6 | 0.00 | 0.00 | 0.00 | 91 | 1012.7 |
| 20260904093739 | 25 | 141 | 1.6 | 3.2 | 0.00 | 0.00 | 0.00 | 91 | 1012.6 |
| 20260904093239 | 25 | 142 | 3.2 | 4.8 | 0.00 | 0.00 | 0.00 | 90 | 1012.6 |
| 20260904092740 | 25 | 149 | 3.2 | 6.4 | 0.00 | 0.00 | 0.00 | 90 | 1012.5 |
| 20260904092240 | 25 | 163 | 1.6 | 6.4 | 0.00 | 0.00 | 0.00 | 90 | 1012.5 |
| 20260904091739 | 25 | 182 | 1.6 | 3.2 | 0.00 | 0.00 | 0.00 | 90 | 1012.4 |
| 20260904091240 | 25 | 181 | 1.6 | 4.8 | 0.00 | 0.00 | 0.00 | 89 | 1012.4 |
| 20260904090739 | 25 | 177 | 1.6 | 4.8 | 0.00 | 0.00 | 0.00 | 89 | 1012.6 |
| 20260904090240 | 25 | 0 | 0.0 | 3.2 | 0.00 | 0.00 | 0.00 | 89 | 1012.7 |
| 20260904085740 | 25 | 0 | 0.0 | 3.2 | 0.00 | 0.00 | 0.00 | 89 | 1012.7 |
| 20260904085239 | 25 | 0 | 0.0 | 3.2 | 0.00 | 0.00 | 0.00 | 89 | 1012.9 |
| 20260904084739 | 25 | 0 | 0.0 | 1.6 | 0.00 | 0.00 | 0.00 | 89 | 1012.9 |
| 20260904083740 | 25 | 0 | 0.0 | 3.2 | 0.00 | 0.00 | 0.00 | 89 | 1012.8 |
| 20260904082739 | 25 | 182 | 1.6 | 3.2 | 0.00 | 0.00 | 0.00 | 89 | 1012.7 |
| 20260904082239 | 25 | 159 | 1.6 | 3.2 | 0.00 | 0.00 | 0.00 | 90 | 1012.7 |
| 20260904081739 | 25 | 148 | 1.6 | 4.8 | 0.00 | 0.00 | 0.00 | 90 | 1012.8 |
| 20260904081239 | 25 | 143 | 1.6 | 4.8 | 0.00 | 0.00 | 0.00 | 89 | 1012.8 |
| 20260904080241 | 25 | 161 | 3.2 | 6.4 | 0.00 | 0.00 | 0.00 | 89 | 1012.7 |
| 20260904075739 | 25 | 158 | 3.2 | 6.4 | 0.00 | 0.00 | 0.00 | 89 | 1012.6 |
| 20260904075239 | 25 | 157 | 3.2 | 6.4 | 0.00 | 0.00 | 0.00 | 89 | 1012.7 |
| 20260904074739 | 25 | 162 | 1.6 | 8.0 | 0.00 | 0.00 | 0.00 | 89 | 1012.7 |
| 20260904073740 | 25 | 159 | 1.6 | 8.0 | 0.00 | 0.00 | 0.00 | 89 | 1012.8 |
| 20260904073239 | 25 | 163 | 3.2 | 8.0 | 0.00 | 0.00 | 0.00 | 89 | 1012.8 |
| 20260904072739 | 25 | 162 | 3.2 | 6.4 | 0.00 | 0.00 | 0.00 | 89 | 1012.8 |
| 20260904072240 | 25 | 159 | 1.6 | 6.4 | 0.00 | 0.00 | 0.00 | 89 | 1012.8 |
| 20260904071739 | 25 | 156 | 3.2 | 8.0 | 0.00 | 0.00 | 0.00 | 89 | 1012.9 |
| 20260904070240 | 25 | 157 | 3.2 | 9.7 | 0.00 | 0.00 | 0.00 | 89 | 1012.8 |
| 20260904065740 | 25 | 156 | 3.2 | 6.4 | 0.00 | 0.00 | 0.00 | 89 | 1012.8 |
| 20260904065240 | 25 | 157 | 3.2 | 8.0 | 0.00 | 0.00 | 0.00 | 89 | 1012.8 |
| 20260904064739 | 25 | 159 | 3.2 | 8.0 | 0.00 | 0.00 | 0.00 | 88 | 1012.7 |
| 20260904064240 | 25 | 160 | 3.2 | 8.0 | 0.00 | 0.00 | 0.00 | 88 | 1012.7 |
| 20260904063739 | 25 | 159 | 3.2 | 8.0 | 0.00 | 0.00 | 0.00 | 88 | 1012.7 |
| 20260904063240 | 25 | 152 | 3.2 | 6.4 | 0.00 | 0.00 | 0.00 | 88 | 1012.7 |
| 20260904062739 | 25 | 147 | 3.2 | 6.4 | 0.00 | 0.00 | 0.00 | 87 | 1012.8 |
| 20260904062240 | 26 | 148 | 3.2 | 8.0 | 0.00 | 0.00 | 0.00 | 87 | 1012.8 |
| 20260904061740 | 26 | 153 | 3.2 | 8.0 | 0.00 | 0.00 | 0.00 | 86 | 1012.8 |
| 20260904061239 | 26 | 158 | 3.2 | 8.0 | 0.00 | 0.00 | 0.00 | 86 | 1012.8 |
| 20260904060739 | 26 | 158 | 3.2 | 8.0 | 0.00 | 0.00 | 0.00 | 86 | 1012.9 |
| 20260904060241 | 26 | 154 | 3.2 | 8.0 | 0.00 | 0.00 | 0.00 | 86 | 1013.0 |
| 20260904055740 | 26 | 151 | 4.8 | 9.7 | 0.00 | 0.00 | 0.00 | 85 | 1012.9 |
| 20260904055239 | 26 | 154 | 4.8 | 9.7 | 0.00 | 0.00 | 0.00 | 85 | 1013.0 |
| 20260904054239 | 26 | 153 | 4.8 | 9.7 | 0.00 | 0.00 | 0.00 | 85 | 1012.8 |
| 20260904053740 | 26 | 149 | 4.8 | 8.0 | 0.00 | 0.00 | 0.00 | 85 | 1013.0 |
| 20260904053240 | 26 | 148 | 3.2 | 8.0 | 0.00 | 0.00 | 0.00 | 85 | 1013.0 |
| 20260904052240 | 26 | 151 | 3.2 | 8.0 | 0.00 | 0.00 | 0.00 | 85 | 1013.0 |
| 20260904051739 | 26 | 150 | 3.2 | 8.0 | 0.00 | 0.00 | 0.00 | 85 | 1013.0 |
| 20260904051239 | 26 | 149 | 4.8 | 9.7 | 0.00 | 0.00 | 0.00 | 85 | 1013.0 |
| 20260904050739 | 26 | 151 | 4.8 | 9.7 | 0.00 | 0.00 | 0.00 | 85 | 1012.9 |
| 20260904050240 | 26 | 153 | 4.8 | 9.7 | 0.00 | 0.00 | 0.00 | 85 | 1012.8 |
| 20260904045741 | 26 | 155 | 3.2 | 8.0 | 0.00 | 0.00 | 0.00 | 84 | 1012.9 |
| 20260904045239 | 26 | 148 | 4.8 | 8.0 | 0.00 | 0.00 | 0.00 | 84 | 1013.0 |
| 20260904044739 | 26 | 143 | 4.8 | 6.4 | 0.00 | 0.00 | 0.00 | 85 | 1013.0 |
| 20260904044240 | 26 | 146 | 4.8 | 8.0 | 0.00 | 0.00 | 0.00 | 85 | 1013.0 |
| 20260904043740 | 26 | 147 | 4.8 | 8.0 | 0.00 | 0.00 | 0.00 | 85 | 1013.0 |
| 20260904043239 | 26 | 149 | 3.2 | 8.0 | 0.00 | 0.00 | 0.00 | 85 | 1012.8 |
| 20260904042739 | 26 | 149 | 3.2 | 8.0 | 0.00 | 0.00 | 0.00 | 84 | 1012.8 |
| 20260904041740 | 26 | 147 | 4.8 | 8.0 | 0.00 | 0.00 | 0.00 | 84 | 1012.9 |
| 20260904041239 | 26 | 146 | 4.8 | 8.0 | 0.00 | 0.00 | 0.00 | 84 | 1012.9 |
| 20260904040739 | 26 | 144 | 4.8 | 8.0 | 0.00 | 0.00 | 0.00 | 83 | 1012.9 |
| 20260904040239 | 26 | 141 | 4.8 | 11.3 | 0.00 | 0.00 | 0.00 | 83 | 1012.9 |
| 20260904035739 | 26 | 144 | 4.8 | 11.3 | 0.00 | 0.00 | 0.00 | 84 | 1012.9 |
| 20260904035240 | 26 | 145 | 4.8 | 9.7 | 0.00 | 0.00 | 0.00 | 84 | 1012.9 |
| 20260904034740 | 26 | 143 | 4.8 | 8.0 | 0.00 | 0.00 | 0.00 | 84 | 1012.9 |
| 20260904033740 | 26 | 140 | 4.8 | 8.0 | 0.00 | 0.00 | 0.00 | 84 | 1012.9 |
| 20260904033240 | 26 | 140 | 4.8 | 8.0 | 0.00 | 0.00 | 0.00 | 84 | 1012.8 |
| 20260904032739 | 26 | 141 | 4.8 | 8.0 | 0.00 | 0.00 | 0.00 | 84 | 1012.9 |
| 20260904032239 | 26 | 142 | 4.8 | 9.7 | 0.00 | 0.00 | 0.00 | 85 | 1012.8 |
| 20260904031740 | 26 | 142 | 4.8 | 9.7 | 0.00 | 0.00 | 0.00 | 85 | 1012.7 |
| 20260904031240 | 26 | 141 | 4.8 | 8.0 | 0.00 | 0.00 | 0.00 | 85 | 1012.8 |
| 20260904030740 | 26 | 142 | 4.8 | 8.0 | 0.00 | 0.00 | 0.00 | 84 | 1012.8 |
| 20260904025740 | 26 | 144 | 3.2 | 9.7 | 0.00 | 0.00 | 0.00 | 84 | 1012.6 |
| 20260904025239 | 26 | 139 | 3.2 | 8.0 | 0.00 | 0.00 | 0.00 | 84 | 1012.5 |
| 20260904024739 | 26 | 140 | 3.2 | 8.0 | 0.00 | 0.00 | 0.00 | 84 | 1012.4 |
| 20260904024240 | 27 | 145 | 3.2 | 8.0 | 0.00 | 0.00 | 0.00 | 83 | 1012.3 |
| 20260904023740 | 27 | 148 | 3.2 | 6.4 | 0.00 | 0.00 | 0.00 | 83 | 1012.3 |
| 20260904022740 | 27 | 152 | 3.2 | 9.7 | 0.00 | 0.00 | 0.00 | 83 | 1012.1 |
| 20260904022240 | 27 | 150 | 4.8 | 8.0 | 0.00 | 0.00 | 0.00 | 83 | 1012.1 |
| 20260904021740 | 27 | 145 | 4.8 | 8.0 | 0.00 | 0.00 | 0.00 | 83 | 1012.0 |
| 20260904021239 | 27 | 139 | 3.2 | 8.0 | 0.00 | 0.00 | 0.00 | 83 | 1012.0 |
| 20260904020740 | 27 | 137 | 4.8 | 8.0 | 0.00 | 0.00 | 0.00 | 83 | 1012.0 |
| 20260904015740 | 27 | 142 | 4.8 | 9.7 | 0.00 | 0.00 | 0.00 | 82 | 1011.7 |
| 20260904015240 | 27 | 141 | 4.8 | 11.3 | 0.00 | 0.00 | 0.00 | 82 | 1011.6 |
| 20260904014739 | 27 | 140 | 4.8 | 11.3 | 0.00 | 0.00 | 0.00 | 81 | 1011.5 |
| 20260904014239 | 27 | 136 | 4.8 | 8.0 | 0.00 | 0.00 | 0.00 | 81 | 1011.5 |
| 20260904013740 | 27 | 137 | 4.8 | 8.0 | 0.00 | 0.00 | 0.00 | 80 | 1011.5 |
| 20260904013240 | 27 | 144 | 4.8 | 9.7 | 0.00 | 0.00 | 0.00 | 80 | 1011.4 |
| 20260904012739 | 27 | 147 | 4.8 | 9.7 | 0.00 | 0.00 | 0.00 | 80 | 1011.4 |
| 20260904012239 | 27 | 149 | 4.8 | 8.0 | 0.00 | 0.00 | 0.00 | 80 | 1011.1 |
| 20260904011740 | 27 | 149 | 4.8 | 8.0 | 0.00 | 0.00 | 0.00 | 80 | 1011.1 |
| 20260904011241 | 27 | 148 | 4.8 | 9.7 | 0.00 | 0.00 | 0.00 | 79 | 1011.1 |
| 20260904010739 | 27 | 150 | 4.8 | 9.7 | 0.00 | 0.00 | 0.00 | 79 | 1011.0 |
| 20260904010241 | 27 | 154 | 4.8 | 9.7 | 0.00 | 0.00 | 0.00 | 79 | 1010.9 |
| 20260904005740 | 27 | 152 | 4.8 | 11.3 | 0.00 | 0.00 | 0.00 | 78 | 1011.0 |
| 20260904004739 | 27 | 149 | 6.4 | 14.5 | 0.00 | 0.00 | 0.00 | 77 | 1011.1 |
| 20260904004240 | 28 | 153 | 6.4 | 14.5 | 0.00 | 0.00 | 0.00 | 77 | 1011.1 |
| 20260904003741 | 28 | 154 | 4.8 | 9.7 | 0.00 | 0.00 | 0.00 | 77 | 1011.1 |
| 20260904003239 | 28 | 153 | 4.8 | 12.9 | 0.00 | 0.00 | 0.00 | 76 | 1011.2 |
| 20260904002740 | 28 | 151 | 6.4 | 12.9 | 0.00 | 0.00 | 0.00 | 75 | 1011.3 |
| 20260904002241 | 28 | 152 | 8.0 | 14.5 | 0.00 | 0.00 | 0.00 | 74 | 1011.2 |
| 20260904001741 | 28 | 153 | 8.0 | 16.1 | 0.00 | 0.00 | 0.00 | 74 | 1011.2 |
| 20260904001240 | 28 | 155 | 8.0 | 16.1 | 0.00 | 0.00 | 0.00 | 73 | 1011.1 |
| 20260904000241 | 29 | 153 | 8.0 | 14.5 | 0.00 | 0.00 | 0.00 | 71 | 1011.1 |
| 20260903235740 | 29 | 151 | 9.7 | 16.1 | 0.00 | 0.00 | 0.00 | 71 | 1011.1 |
| 20260903235239 | 29 | 151 | 9.7 | 16.1 | 0.00 | 0.00 | 0.00 | 70 | 1011.0 |
| 20260903234740 | 30 | 152 | 8.0 | 14.5 | 0.00 | 0.00 | 0.00 | 69 | 1011.0 |
| 20260903234240 | 30 | 154 | 8.0 | 16.1 | 0.00 | 0.00 | 0.00 | 68 | 1011.1 |
| 20260903233740 | 30 | 152 | 9.7 | 16.1 | 0.00 | 0.00 | 0.00 | 67 | 1011.0 |
| 20260903233241 | 30 | 152 | 9.7 | 17.7 | 0.00 | 0.00 | 0.00 | 68 | 1011.0 |
| 20260903232242 | 30 | 152 | 11.3 | 16.1 | 0.00 | 0.00 | 0.00 | 66 | 1010.9 |
| 20260903231740 | 30 | 149 | 9.7 | 16.1 | 0.00 | 0.00 | 0.00 | 64 | 1011.0 |
| 20260903231240 | 30 | 145 | 9.7 | 14.5 | 0.00 | 0.00 | 0.00 | 65 | 1010.8 |
| 20260903230739 | 30 | 142 | 8.0 | 12.9 | 0.00 | 0.00 | 0.00 | 64 | 1010.8 |
| 20260903225741 | 31 | 141 | 8.0 | 14.5 | 0.00 | 0.00 | 0.00 | 63 | 1010.8 |
| 20260903225239 | 31 | 139 | 9.7 | 16.1 | 0.00 | 0.00 | 0.00 | 63 | 1010.8 |
| 20260903224740 | 31 | 145 | 9.7 | 16.1 | 0.00 | 0.00 | 0.00 | 62 | 1010.7 |
| 20260903224240 | 30 | 151 | 9.7 | 16.1 | 0.00 | 0.00 | 0.00 | 63 | 1010.7 |
| 20260903223740 | 30 | 146 | 9.7 | 14.5 | 0.00 | 0.00 | 0.00 | 63 | 1010.7 |
| 20260903223240 | 30 | 144 | 8.0 | 14.5 | 0.00 | 0.00 | 0.00 | 64 | 1010.7 |
| 20260903222740 | 30 | 148 | 8.0 | 14.5 | 0.00 | 0.00 | 0.00 | 65 | 1010.7 |
| 20260903222240 | 30 | 150 | 8.0 | 14.5 | 0.00 | 0.00 | 0.00 | 66 | 1010.8 |
| 20260903221740 | 30 | 145 | 8.0 | 14.5 | 0.00 | 0.00 | 0.00 | 67 | 1010.7 |
| 20260903221240 | 30 | 142 | 9.7 | 16.1 | 0.00 | 0.00 | 0.00 | 68 | 1010.8 |
| 20260903220740 | 30 | 146 | 8.0 | 16.1 | 0.00 | 0.00 | 0.00 | 68 | 1010.8 |
| 20260903220241 | 30 | 150 | 8.0 | 16.1 | 0.00 | 0.00 | 0.00 | 67 | 1010.8 |
| 20260903215739 | 30 | 145 | 8.0 | 16.1 | 0.00 | 0.00 | 0.00 | 67 | 1010.8 |
| 20260903215240 | 31 | 144 | 8.0 | 16.1 | 0.00 | 0.00 | 0.00 | 66 | 1010.7 |
| 20260903214740 | 31 | 150 | 8.0 | 16.1 | 0.00 | 0.00 | 0.00 | 66 | 1010.8 |
| 20260903214241 | 31 | 152 | 6.4 | 12.9 | 0.00 | 0.00 | 0.00 | 64 | 1010.7 |
| 20260903213740 | 32 | 152 | 6.4 | 12.9 | 0.00 | 0.00 | 0.00 | 63 | 1010.7 |
| 20260903213239 | 32 | 151 | 8.0 | 16.1 | 0.00 | 0.00 | 0.00 | 62 | 1010.6 |
| 20260903212742 | 32 | 151 | 8.0 | 16.1 | 0.00 | 0.00 | 0.00 | 61 | 1010.8 |
| 20260903212239 | 32 | 147 | 8.0 | 16.1 | 0.00 | 0.00 | 0.00 | 61 | 1010.8 |
| 20260903210740 | 32 | 156 | 6.4 | 12.9 | 0.00 | 0.00 | 0.00 | 60 | 1010.8 |
| 20260903210240 | 32 | 159 | 6.4 | 14.5 | 0.00 | 0.00 | 0.00 | 60 | 1010.9 |
| 20260903205740 | 32 | 160 | 6.4 | 14.5 | 0.00 | 0.00 | 0.00 | 61 | 1010.8 |
| 20260903205240 | 32 | 161 | 6.4 | 14.5 | 0.00 | 0.00 | 0.00 | 62 | 1011.0 |
| 20260903204741 | 32 | 165 | 6.4 | 14.5 | 0.00 | 0.00 | 0.00 | 62 | 1011.0 |
| 20260903203740 | 32 | 160 | 6.4 | 16.1 | 0.00 | 0.00 | 0.00 | 62 | 1011.3 |
| 20260903203240 | 32 | 156 | 8.0 | 16.1 | 0.00 | 0.00 | 0.00 | 63 | 1011.3 |
| 20260903202741 | 32 | 160 | 6.4 | 17.7 | 0.00 | 0.00 | 0.00 | 63 | 1011.4 |
| 20260903202241 | 32 | 169 | 6.4 | 17.7 | 0.00 | 0.00 | 0.00 | 63 | 1011.5 |
| 20260903201740 | 32 | 162 | 6.4 | 14.5 | 0.00 | 0.00 | 0.00 | 63 | 1011.5 |